Location: Munkebjergskolens Observatorium
(55.3864°N, 10.3987°E)
Time: 22:28:28
(UTC+01:00)

DELTA 1 DEB - Pass Details

Date: 06 December 2023
Orbit: 783 x 826 km, 98.9° (Epoch: 04 March)

Event Time Altitude Azimuth Distance (km) Brightness Sun altitude
Rises 16:37:28 0° 131° (SE) 3,301 ? -6.3°
Reaches altitude 10° 16:39:56 10° 123° (ESE) 2,382 ? -6.6°
Maximum altitude 16:44:41 35° 59° (ENE) 1,284 ? -7.2°
Drops below altitude 10° 16:49:29 10° 355° (N) 2,421 ? -7.8°
Sets 16:52:01 0° 347° (NNW) 3,364 ? -8.1°
